Location: Bremen
(53.0793°N, 8.8017°E)
Time: 22:51:17
(UTC+02:00)

Tiros 1 - Pass Details

Date: 22 April 2024
Orbit: 624 x 657 km, 48.4° (Epoch: 21 May)

Event Time Altitude Azimuth Distance (km) Brightness Sun altitude
Rises 01:13:28 0° 220° (SW) 2,928 - -24.6°
Reaches altitude 10° 01:16:06 10° 208° (SSW) 2,016 - -24.6°
Maximum altitude 01:19:53 25° 153° (SSE) 1,271 - -24.6°
Drops below altitude 10° 01:23:39 10° 98° (E) 2,007 - -24.6°
Exits shadow 01:24:24 - 93° (E) 2,250 9.9 -24.6°
Sets 01:26:16 0° 85° (E) 2,912 10.6 -24.6°
